リニア-スペースウォッチ彗星

P/2019 K2 ( LINEAR-Spacewatch )

English version
Home page
Updated on June 8, 2019

---------------------------------------------------------------------

・ プロフィール

検出日 2019年5月29日、6月1日
検出光度 21.6等、21.0等
検出者 Pan-STARRS 1 telescope (Haleakala), Mt. Lemmon Survey

・ 軌道要素

Epoch 2019 Oct. 4.0 TT = JDT 2458760.5
T 2019 Sept. 26.88873 TT                                MPCW
q   2.2653510            (2000.0)            P               Q
n   0.05196999     Peri.  173.09660     +0.97549386     +0.21394051
a   7.1116050      Node   173.79232     -0.21767130     +0.97244223
e   0.6814571      Incl.   28.37715     -0.03210833     -0.09265834
P  18.96
From 40 observations 2000 Sept. 1-2019 June 1, mean residual 0".5.

・ 光度変化

        m1 = 13.5 + 5 logΔ + 15.0 log r

---------------------------------------------------------------------

軌道要素はM.P.E.C. 2019-L11に掲載されたものです。
光度グラフはComet for Windowsで作成したものです。

---------------------------------------------------------------------

Copyright(C) Seiichi Yoshida (comet@aerith.net). All rights reserved.